Flag for Slovakia Weather past 2 weeks in Piešťany, Slovakia

Now
70 °F

Mild.


Feels Like: 70 °F
Forecast: 65 / 80 °F
Wind: 8 mph from Southeast

Location: Piestany

Current Time: Jul 30, 2014 at 1:34:25 AM

Latest Report: Jul 30, 2014 at 1:00 AM


Visibility: N/A

Pressure: 29.80 "Hg

Humidity: 83%

Dew point: 64 °F

Location of PiešťanyLocation

Historic Weather in Piešťany — Graph

°F

Piešťany temperature yesterday

Maximum temperature yesterday: 81 °F (at 3:30 PM)
Minimum temperature yesterday: 63 °F (at 4:00 AM)
Average temperature yesterday: 70 °F

Past Weeks' High & Low Weather Summary

 TemperatureHumidityPressure
High91 °F (Jul 20, 3:00 PM)94% (Jul 18, 1:00 AM)30.12 "Hg (Jul 18, 1:00 AM)
Low57 °F (Jul 25, 4:00 AM)30% (Jul 20, 3:00 PM)29.71 "Hg (Jul 21, 2:30 PM)
Average73 °F68%29.94 "Hg
* Reported Midnight between Jul 14 and Jul 15 — Jul 30 12:30 AM, Piešťany, Weather by CustomWeather, © 2014

Note: Actual official high and low records may vary slightly from our data, if they occured in-between our weather recording intervals... More about our weather records

Advertising

Piešťany weather history for previous 24 hours

 ConditionsComfort  
Time TempWeatherWind HumidityBarometerVisibility
12:30 AM
Jul 30
70 °FPartly cloudy.10 mph78%29.80 "HgN/A
12:00 AM70 °FPartly cloudy.9 mph83%29.80 "HgN/A
11:30 PM
Jul 29
72 °FPassing clouds.8 mph78%29.77 "HgN/A
11:00 PM72 °FPassing clouds.12 mph78%29.77 "HgN/A
10:30 PM70 °FPassing clouds.10 mph83%29.77 "HgN/A
10:00 PM70 °FPassing clouds.9 mph83%29.77 "HgN/A
9:30 PM70 °FScattered clouds.10 mph83%29.77 "HgN/A
9:00 PM70 °FScattered clouds.12 mph83%29.77 "HgN/A
8:30 PM72 °FScattered clouds.10 mph78%29.77 "HgN/A
8:00 PM73 °FScattered clouds.5 mph83%29.77 "HgN/A
7:30 PM73 °FScattered clouds.3 mph83%29.77 "HgN/A
7:00 PM73 °FSprinkles. Broken clouds.7 mph78%29.77 "HgN/A
6:30 PM75 °FBroken clouds.6 mph78%29.77 "HgN/A
6:00 PM73 °FBroken clouds.1 mph78%29.77 "HgN/A
5:30 PM73 °FScattered clouds.5 mph74%29.77 "HgN/A
5:00 PM73 °FBroken clouds.3 mph78%29.80 "HgN/A
4:30 PM72 °FPartly sunny.10 mph78%29.80 "HgN/A
4:00 PM79 °FPartly sunny.12 mph58%29.77 "HgN/A
3:30 PM81 °FScattered clouds.10 mph54%29.77 "HgN/A
3:00 PM79 °FScattered clouds.9 mph61%29.80 "HgN/A
2:30 PM79 °FScattered clouds.7 mph61%29.80 "HgN/A
2:00 PM77 °FScattered clouds.6 mph74%29.80 "HgN/A
1:30 PM73 °FSprinkles. Broken clouds.10 mph74%29.83 "HgN/A
1:00 PM77 °FScattered clouds.8 mph61%29.83 "HgN/A
12:30 PM77 °FScattered clouds.9 mph65%29.83 "HgN/A
12:00 PM77 °FScattered clouds.9 mph65%29.83 "HgN/A
11:30 AM75 °FScattered clouds.8 mph69%29.83 "HgN/A
11:00 AM73 °FScattered clouds.8 mph74%29.83 "HgN/A
10:30 AM72 °FBroken clouds.9 mph73%29.83 "HgN/A
10:00 AM72 °FPartly sunny.8 mph78%29.83 "HgN/A
9:30 AM72 °FBroken clouds.3 mph78%29.83 "HgN/A
9:00 AM70 °FBroken clouds.3 mph83%29.83 "HgN/A
8:30 AM68 °FBroken clouds.3 mph88%29.83 "Hg4 mi
8:00 AM66 °FBroken clouds.5 mph94%29.83 "Hg4 mi
7:30 AM66 °FBroken clouds.5 mph94%29.83 "Hg4 mi
7:00 AM66 °FBroken clouds.5 mph94%29.83 "Hg4 mi
6:30 AM64 °FScattered clouds.5 mph94%29.83 "Hg3 mi
6:00 AM64 °FPassing clouds.5 mph94%29.83 "Hg4 mi
5:30 AM63 °FFog.6 mph94%29.83 "Hg1 mi
5:00 AM63 °FFog.6 mph94%29.83 "Hg1 mi
4:30 AM63 °FFog.7 mph94%29.83 "Hg1 mi
4:00 AM63 °FFog.5 mph94%29.83 "Hg1 mi
3:30 AM64 °FFog.7 mph94%29.83 "Hg2 mi
3:00 AM64 °FFog.3 mph88%29.83 "Hg2 mi
2:30 AM64 °FFog.3 mph94%29.83 "Hg2 mi
2:00 AM64 °FFog.6 mph94%29.83 "Hg2 mi
1:30 AM64 °FFog.6 mph94%29.83 "Hg2 mi
1:00 AM64 °FFog.7 mph94%29.86 "Hg2 mi
Weather by CustomWeather, © 2014

See weather overviewHow to use our weather pages